Home   Weather   Erlangen   Past weeks

Flag for Germany Past Weather in Erlangen, Bavaria, Germany — Yesterday and Last 2 Weeks

Now
34 °F

Partly sunny.


Feels Like: 34 °F
Forecast: 30 / 46 °F
Wind: 2 mph from North

Location: Nuernberg

Current Time: Dec 9, 2016 at 8:56:30 am

Latest Report: Dec 9, 2016 at 8:20 am


Visibility: N/A

Pressure: 30.45 "Hg

Humidity: 87%

Dew Point: 30 °F

Location of ErlangenLocation

Past Weather in Erlangen — Graph

°F

Erlangen Temperature Yesterday

Maximum temperature yesterday: 37 °F (at 12:50 pm)
Minimum temperature yesterday: 23 °F (at 7:20 am)
Average temperature yesterday: 30 °F

High & Low Weather Summary for the Past Weeks

 TemperatureHumidityPressure
High50 °F (Nov 25, 12:50 pm)100% (Nov 24, 7:20 am)30.57 "Hg (Nov 24, 7:20 am)
Low16 °F (Nov 30, 4:20 am)51% (Nov 29, 3:50 pm)30.01 "Hg (Nov 26, 2:20 pm)
Average33 °F89%30.30 "Hg
* Reported Nov 24 7:20 am — Dec 9 7:50 am, Erlangen, Weather by CustomWeather, © 2016

Note: Actual official high and low records may vary slightly from our data, if they occured in-between our weather recording intervals... More about our weather records

Advertising

Erlangen Weather History for the Previous 24 Hours

Scroll right to see more
 ConditionsComfort  
Time TempWeatherWind HumidityBarometerVisibility
7:50 am
Fri, Dec 9
32 °FPassing clouds.5 mph93%30.42 "HgN/A
7:20 am32 °FPassing clouds.5 mph87%30.42 "HgN/A
6:50 am30 °FPartly cloudy.5 mph93%30.42 "HgN/A
6:20 am30 °FClear.5 mph86%30.42 "Hg10 mi
5:50 am28 °FClear.5 mph93%30.42 "Hg10 mi
5:20 am30 °FClear.6 mph86%30.42 "Hg10 mi
4:50 am28 °FClear.5 mph93%30.42 "Hg10 mi
4:20 am28 °FClear.6 mph93%30.42 "Hg10 mi
3:50 am28 °FClear.5 mph93%30.45 "Hg10 mi
3:20 am28 °FClear.6 mph93%30.45 "Hg10 mi
2:50 am28 °FPassing clouds.3 mph93%30.45 "HgN/A
2:20 am30 °FClear.3 mph93%30.42 "Hg10 mi
1:50 am30 °FClear.3 mph93%30.42 "Hg10 mi
1:20 am32 °FPassing clouds.3 mph87%30.42 "HgN/A
12:50 am32 °FPassing clouds.3 mph87%30.42 "HgN/A
12:20 am28 °FClear.5 mph93%30.42 "Hg10 mi
11:50 pm
Thu, Dec 8
30 °FClear.5 mph93%30.45 "Hg10 mi
11:20 pm32 °FClear.3 mph93%30.45 "Hg10 mi
10:50 pm32 °FPassing clouds.3 mph93%30.45 "HgN/A
10:20 pm32 °FClear.5 mph93%30.45 "Hg10 mi
9:50 pm32 °FPassing clouds.5 mph93%30.45 "HgN/A
9:20 pm32 °FClear.5 mph93%30.45 "Hg10 mi
8:50 pm30 °FClear.6 mph100%30.45 "Hg10 mi
8:20 pm30 °FClear.6 mph93%30.45 "Hg10 mi
7:50 pm30 °FClear.3 mph93%30.48 "Hg6 mi
7:20 pm32 °FClear.3 mph93%30.48 "Hg6 mi
6:50 pm32 °FClear.5 mph93%30.45 "Hg6 mi
6:20 pm32 °FClear.5 mph93%30.48 "Hg6 mi
5:50 pm30 °FClear.5 mph100%30.48 "Hg6 mi
5:20 pm34 °FClear.3 mph93%30.48 "Hg10 mi
4:50 pm34 °FClear.6 mph93%30.48 "Hg10 mi
4:20 pm36 °FClear.6 mph81%30.48 "Hg10 mi
3:50 pm37 °FSunny.3 mph75%30.48 "Hg10 mi
3:20 pm37 °FPassing clouds.5 mph81%30.48 "HgN/A
2:50 pm37 °FPassing clouds.6 mph75%30.48 "HgN/A
2:20 pm37 °FPassing clouds.3 mph75%30.48 "HgN/A
1:50 pm37 °FPassing clouds.3 mph75%30.48 "HgN/A
1:20 pm37 °FPassing clouds.6 mph75%30.48 "HgN/A
12:50 pm37 °FPassing clouds.7 mph70%30.51 "HgN/A
12:20 pm36 °FSunny.7 mph75%30.51 "Hg10 mi
11:50 am34 °FPassing clouds.5 mph75%30.54 "HgN/A
11:20 am32 °FSunny.3 mph80%30.54 "Hg10 mi
10:50 am32 °FPassing clouds.5 mph80%30.54 "HgN/A
10:20 am30 °FSunny.5 mph86%30.54 "Hg10 mi
9:50 am28 °FPassing clouds.5 mph93%30.54 "HgN/A
9:20 am28 °FSunny.7 mph86%30.54 "Hg10 mi
8:50 am27 °FPassing clouds.5 mph93%30.54 "HgN/A
8:20 am27 °FClear.6 mph93%30.54 "Hg6 mi
Weather by CustomWeather, © 2016

See weather overviewHow to use our weather pages